EHI
0 0 0 0 0 0 0 0 0 0 0 0 0 0 0 0 0 0 0 0 0 0 0 0 0 0 0 0 0 0 0 0 0 0 0 0 0 0 0 0 0 0 0 0
0 0 0 0 0 0 0 0 0 0 0 0 0 0 0 0 0 0 0 0 0 0 0 0 0 0 0 0 0 0 0 0 0 0 0 0 0 0 0 0 0 0 0 0
0 0 0 0 0 0 0 0 0 0 0 0 0 0 0 0 0 0 0 0 0 0 0 0 0 0 0 0 0 0 0 0 0 0 0 0 0 0 0 0 0 0 0 0
0 0 0 0 0 0 0 0 0 0 0 0 0 0 0 0 0 0 0 0 0 0 0 0 0 0 0 0 0 0 0 0 0 0 0 0 0 0 0 0 0 0 0 0
0 0 0 0 0 0 0 0 0 0 0 0 0 0 0 0 0 0 0 0 0 0 0 0 0 0 0 0 0 0 0 0 0 0 0 0 0 0 0 0 0 0 0 0
0 0 0 0 0 0 0 0 0 0 0 0 0 0 0 0 0 0 0 0 0 0 0 0 0 0 0 0 0 0 0 0 0 0 0 0 0 0 0 0 0 0 0 0
0 0 0 0 0 0 0 0 0 0 0 0 0 0 0 0 0 0 0 0 0 0 0 0 0 0 0 0 0 0 0 0 0 0 0 0 0 0 0 0 0 0 0 0
0 0 0 0 0 0 0 0 0 0 0 0 0 0 0 0 0 0 0 0 0 0 0 0 0 0 0 0 0 0 0 0 0 0 0 0 0 0 0 0 0 0 0 0
0 0 0 0 0 0 0 0 0 0 0 0 0 0 0 0 0 0 0 0 0 0 0 0 0 0 0 0 0 0 0 0 0 0 0 0 0 0 0 0 0 0 0 0
0 0 0 0 0 0 0 0 0 0 0 0 0 0 0 0 0 0 0 0 0 0 0 0 0 0 0 0 0 0 0 0 0 0 0 0 0 0 0 0 0 0 0 0
0 0 0 0 0 0 0 0 0 0 0 0 0 0 0 0 0 0 0 0 0 0 0 0 0 0 0 0 0 0 0 0 0 0 0 0 0 0 0 0 0 0 0 0
0 0 0 0 0 0 0 0 0 0 0 0 0 0 0 0 0 0 0 0 0 0 0 0 0 0 0 0 0 0 0 0 0 0 0 0 0 0 0 0 0 0 0 0
0 0 0 0 0 0 0 0 0 0 0 0 0 0 0 0 0 0 0 0 0 0 0 0 0 0 0 0 0 0 0 0 0 0 0 0 0 0 0 0 0 0 0 0
0 0 0 0 0 0 0 0 0 0 0 0 0 0 0 0 0 0 0 0 0 0 0 0 0 0 0 0 0 0 0 0 0 0 0 0 0 0 0 0 0 0 0 0
0 0 0 0 0 0 0 0 0 0 0 0 0 0 0 0 0 0 0 0 0 0 0 0 0 0 0 0 0 0 0 0 0 0 0 0 0 0 0 0 0 0 0 0
0 0 0 0 0 0 0 0 0 0 0 0 0 0 0 0 0 0 0 0 0 0 0 0 0 0 0 0 0 0 0 0 0 0 0 0 0 0 0 0 0 0 0 0
0 0 0 0 0 0 0 0 0 0 0 0 0 0 0 0 0 0 0 0 0 0 0 0 0 0 0 0 0 0 0 0 0 0 0 0 0 0 0 0 0 0 0 0
0 0 0 0 0 0 0 0 0 0 0 0 0 0 0 0 0 0 0 0 0 0 0 0 0 0 0 0 0 0 0 0 0 0 0 0 0 0 0 0 0 0 0 0
0 0 0 0 0 0 0 0 0 0 0 0 0 0 0 0 0 0 0 0 0 0 0 0 0 0 0 0 0 0 0 0 0 0 0 0 0 0 0 0 0 0 0 0
0 0 0 0 0 0 0 0 0 0 0 0 0 0 0 0 0 0 0 0 0 0 0 0 0 0 0 0 0 0 0 0 0 0 0 0 0 0 0 0 0 0 0 0
0 0 0 0 0 0 0 0 0 0 0 0 0 0 0 0 0 0 0 0 0 0 0 0 0 0 0 0 0 0 0 0 0 0 0 0 0 0 0 0 0 0 0 0
0 0 0 0 0 0 0 0 0 0 0 0 0 0 0 0 0 0 0 0 0 0 0 0 0 0 0 0 0 0 0 0 0 0 0 0 0 0 0 0 0 0 0 0
0 0 0 0 0 0 0 0 0 0 0 0 0 0 0 0 0 0 0 0 0 0 0 0 0 0 0 0 0 0 0 0 0 0 0 0 0 0 0 0 0 0 0 0
0 0 0 0 0 0 0 0 0 0 0 0 0 0 0 0 0 0 0 0 0 0 0 0 0 0 0 0 0 0 0 0 0 0 0 0 0 0 0 0 0 0 0 0
0 0 0 0 0 0 0 0 0 0 0 0 0 0 0 0 0 0 0 0 0 0 0 0 0 0 0 0 0 0 0 0 0 0 0 0 0 0 0 0 0 0 0 0
0 0 0 0 0 0 0 0 0 0 0 0 0 0 0 0 0 0 0 0 0 0 0 0 0 0 0 0 0 0 0 0 0 0 0 0 0 0 0 0 0 0 0 0
0 0 0 0 0 0 0 0 0 0 0 0 0 0 0 0 0 0 0 0 0 0 0 0 0 0 0 0 0 0 0 0 0 0 0 0 0 0 0 0 0 0 0 0
Wind_Speed
7 6 5 7 9 8 9 9 9 10 10 14 8 7 7 6 6 6 6 6 6 6 6 7 7 6 6 6 6 5 5 5 5 5 5 5 5 4 4 4 4 4 4 4
5 5 5 9 10 9 10 9 11 11 15 10 7 5 5 6 6 7 7 7 7 7 7 7 7 6 6 7 6 5 5 5 6 5 5 5 5 5 4 4 4 3 3 4
5 3 4 9 8 8 6 7 8 11 12 5 5 6 7 7 6 7 8 7 7 7 7 7 7 7 7 7 6 5 5 6 5 5 5 5 6 5 5 4 3 3 3 3
3 3 6 7 2 5 7 7 8 8 7 6 7 6 6 5 5 7 7 7 7 7 8 7 7 6 6 6 5 5 5 5 5 5 5 5 5 4 5 4 3 3 4 4
1 3 9 8 3 3 5 7 7 9 9 7 5 5 5 4 4 5 6 6 6 7 7 7 6 6 6 5 4 5 5 5 5 5 5 5 5 5 4 4 4 3 4 3
3 3 8 7 2 0 2 6 4 4 6 5 2 3 6 4 5 5 6 5 6 6 6 6 6 5 5 5 5 5 6 6 6 5 4 5 5 4 4 4 3 4 4 3
5 6 11 6 1 2 2 7 3 3 4 3 4 6 6 5 5 5 5 6 6 6 6 6 6 5 5 5 6 6 6 6 5 5 5 5 4 3 3 3 3 3 3 3
5 6 11 3 4 6 7 2 2 3 3 4 5 5 5 5 5 6 6 6 6 6 6 6 6 5 5 6 6 6 5 5 5 5 4 4 3 3 3 3 3 3 3 3
10 10 4 4 6 4 1 2 3 3 4 4 4 5 5 5 5 5 6 6 6 6 7 7 5 4 5 6 6 5 5 5 5 5 4 4 3 3 3 2 2 2 2 3
6 8 5 5 4 3 3 4 4 3 4 3 4 5 5 5 5 5 6 6 6 6 6 7 6 6 5 6 5 5 5 5 5 4 4 4 3 3 2 2 2 2 3 2
6 7 5 5 5 5 3 3 3 3 3 3 3 5 5 5 5 5 6 6 5 5 6 7 7 6 6 6 4 4 5 5 5 4 4 3 3 3 3 2 2 2 2 2
8 6 5 5 3 2 3 4 4 3 4 4 3 5 5 5 5 5 5 5 5 6 6 7 6 6 6 5 4 4 4 4 3 3 3 3 3 4 5 5 6 6 5 4
5 3 3 3 2 2 3 3 3 3 4 4 4 3 4 4 4 4 5 6 6 6 6 6 6 6 6 5 4 3 4 4 3 3 3 3 3 3 4 5 6 6 6 6
2 1 2 3 3 3 3 3 2 3 3 3 3 3 3 4 4 5 5 6 6 6 6 6 6 6 6 5 4 4 4 5 4 3 3 3 3 3 3 3 4 3 4 5
3 3 4 3 2 2 2 2 2 3 3 3 3 3 3 4 5 6 6 6 6 5 6 6 6 7 6 5 5 4 4 3 3 3 3 3 3 2 2 3 3 3 2 3
3 2 2 2 3 3 2 2 3 4 4 3 4 4 4 4 5 5 5 4 5 6 6 6 6 7 6 5 5 4 3 6 5 3 3 3 2 2 2 3 3 3 2 2
1 3 3 3 4 4 3 4 4 4 4 4 4 4 4 4 4 5 5 5 5 5 6 6 7 6 6 5 4 3 3 4 6 4 3 3 3 3 3 3 3 3 2 3
4 4 4 4 4 4 4 4 3 4 4 4 4 3 3 4 5 5 6 5 5 6 6 6 6 6 5 5 3 3 3 3 3 3 3 3 3 3 3 3 3 3 2 3
2 2 3 3 3 3 4 4 4 3 3 3 3 3 4 4 4 5 5 5 5 6 7 6 9 6 5 5 5 3 3 3 3 3 3 5 4 3 3 3 3 2 2 2
2 2 2 2 2 2 3 3 3 3 3 2 3 3 4 4 4 4 4 4 4 5 6 7 6 5 5 5 5 3 3 3 3 3 3 3 3 3 3 3 2 2 2 2
2 2 2 2 2 3 3 3 2 3 3 2 3 4 4 4 4 3 3 5 5 5 6 8 5 4 4 4 5 3 3 3 3 3 3 3 3 3 3 3 3 3 2 2
2 2 2 2 2 3 3 2 2 3 2 2 3 3 3 4 4 3 3 4 5 8 5 4 4 5 5 5 3 2 3 3 3 3 3 3 3 3 3 3 3 3 3 2
2 2 2 2 2 3 3 2 2 2 2 3 3 3 3 4 3 3 4 4 4 7 5 4 6 9 8 4 2 2 3 3 3 3 3 3 3 3 3 3 3 3 3 3
1 1 2 2 1 1 2 3 2 2 2 3 3 3 2 3 3 2 3 6 8 8 4 7 10 10 8 3 2 2 3 3 3 3 3 3 3 3 3 3 3 3 3 3
1 1 1 1 1 2 2 2 2 2 2 2 3 2 2 2 3 3 3 4 7 7 4 7 10 10 6 3 3 3 3 3 3 3 3 3 3 3 3 3 3 3 3 3
1 1 2 2 2 2 1 1 1 2 2 3 3 2 2 2 2 3 3 4 5 7 5 4 5 6 4 4 4 4 3 4 4 4 3 3 3 3 3 3 4 3 3 3
1 1 1 1 1 1 1 1 1 2 2 2 3 3 3 2 2 3 3 3 4 4 4 4 4 4 4 4 4 4 3 3 3 3 3 3 3 3 3 4 4 3 3 4
Wind_Direction
257 260 239 243 243 214 211 214 224 249 256 269 280 281 285 288 294 302 305 308 307 307 307 308 308 309 309 308 309 303 302 304 302 304 303 302 300 289 275 269 271 266 260 267
278 261 253 265 255 229 228 233 243 263 271 266 277 286 286 287 292 297 300 304 306 307 307 306 304 304 307 308 305 301 300 296 300 307 309 305 301 298 288 279 275 269 259 260
269 305 324 272 242 204 207 215 208 234 254 284 292 286 283 284 284 287 294 302 306 305 303 301 298 298 300 302 303 304 306 306 308 309 306 305 303 303 297 288 286 282 265 255
279 360 250 245 204 191 209 237 223 244 267 274 268 278 280 271 270 284 299 303 304 303 303 301 299 299 299 300 302 304 305 306 306 307 304 306 301 296 293 288 280 282 280 269
204 264 277 288 254 182 201 265 232 238 264 282 297 311 294 275 274 278 290 293 294 295 297 302 303 303 307 307 305 307 303 302 303 301 299 301 299 294 288 286 286 286 280 273
180 224 252 261 277 213 112 280 259 225 258 279 335 304 288 304 312 308 308 306 306 310 313 313 309 307 307 307 308 303 301 299 298 298 298 297 295 295 288 288 288 298 295 290
205 233 263 264 243 113 177 260 276 229 248 236 224 242 278 305 310 310 311 312 316 317 315 310 312 312 309 308 302 298 299 300 300 299 296 290 293 294 293 295 299 303 302 307
181 212 255 219 142 188 229 266 254 254 249 245 258 276 291 301 307 313 317 318 320 318 313 313 316 314 307 302 299 301 303 304 302 300 297 301 303 303 302 299 303 305 307 311
196 217 242 177 200 227 228 254 265 267 273 263 274 282 294 300 302 307 308 312 314 312 312 315 316 312 302 301 307 308 310 310 309 302 300 303 301 301 302 300 297 303 303 303
244 261 261 247 252 268 256 253 270 276 282 275 273 283 293 299 306 308 309 310 314 316 316 317 318 314 304 306 312 313 312 311 311 308 304 302 302 295 288 283 281 286 288 293
252 274 297 269 244 251 266 277 285 291 276 270 275 284 286 291 296 300 306 309 311 310 309 310 316 315 312 313 317 317 313 309 310 310 308 312 314 312 304 283 276 281 273 270
236 233 223 255 256 231 247 264 268 281 290 289 272 276 286 288 290 296 301 306 310 310 310 311 314 315 316 313 313 313 315 316 312 311 310 312 316 321 327 319 321 315 312 309
239 252 236 262 280 255 251 263 266 263 267 284 288 279 285 292 298 305 307 311 310 308 309 312 315 319 322 324 316 310 305 310 310 314 313 313 315 319 324 332 331 327 326 324
247 247 268 260 265 276 272 276 280 284 281 281 289 298 299 301 307 308 306 307 308 308 311 313 316 319 321 325 320 314 310 310 312 308 306 309 311 308 309 316 324 327 329 332
257 239 240 258 276 290 297 315 316 308 309 310 307 305 303 303 302 301 305 311 315 315 315 318 319 318 323 326 324 320 315 311 310 308 305 303 306 309 311 312 311 312 324 335
274 277 265 265 274 289 300 295 286 287 293 295 300 301 297 293 295 301 308 317 320 317 317 317 314 315 320 322 321 320 317 318 319 316 314 319 322 320 318 313 316 319 323 324
238 266 264 269 273 280 271 262 258 267 276 280 285 296 303 306 310 311 313 313 309 305 307 309 310 315 318 318 316 313 313 317 319 322 323 322 320 317 314 312 315 317 317 323
232 240 240 242 251 266 276 274 269 270 269 270 285 294 296 296 298 303 309 315 318 317 313 312 313 319 320 320 316 313 314 315 319 320 319 319 316 312 315 317 317 315 322 336
261 255 262 263 257 253 261 267 270 271 274 275 277 279 283 285 290 300 308 314 317 315 316 317 321 326 321 318 323 317 319 322 323 320 316 316 321 324 322 318 318 325 330 331
276 274 279 286 282 266 268 273 275 276 274 267 272 286 294 296 299 304 305 299 291 290 302 313 319 317 316 313 319 320 320 318 319 318 318 318 319 322 322 319 319 323 327 328
265 269 277 287 291 286 274 272 270 274 279 267 263 274 284 293 299 302 306 304 305 305 309 315 320 314 311 313 317 318 314 314 318 319 319 318 318 319 321 324 327 326 326 327
253 255 265 276 282 290 291 283 271 273 280 280 280 285 294 301 305 303 288 283 301 317 323 313 311 315 322 321 318 317 316 316 315 316 314 313 314 315 317 321 322 321 322 321
254 253 261 268 268 279 295 291 279 273 273 277 280 283 285 288 289 294 304 304 305 317 323 312 319 325 329 332 328 321 316 312 308 306 304 303 305 307 310 314 312 312 312 312
257 260 272 286 296 300 300 300 301 296 288 283 279 279 285 298 300 285 288 308 319 324 324 322 330 334 338 341 329 320 314 308 304 304 304 304 305 306 307 308 308 308 307 307
251 259 268 279 278 277 283 302 317 317 316 312 312 312 303 284 285 303 310 311 320 330 330 330 335 339 343 335 326 315 308 301 300 303 307 309 310 310 309 307 304 302 300 298
247 248 251 253 259 273 283 290 298 304 311 314 318 318 319 318 311 314 319 322 325 331 334 330 330 334 335 331 325 321 316 316 322 322 315 310 310 308 305 303 302 298 296 293
282 287 294 303 304 298 291 284 286 294 297 298 307 314 321 327 329 329 328 329 330 331 328 327 328 329 329 327 325 323 320 317 314 310 309 307 304 301 300 298 295 293 292 290